Retour au catalogue

ARIANE 44LP DEB

ActifHEO
NORAD 25844·DEBRIS·🇫🇷 France

Lancé Aug 8, 1989 depuis Guiana Space Centre

Loading…

Prochains Passages (prochaines 24 heures)

TLE

FraisSource: Space-Track

Époque: Sep 12, 2026, 08:03 UTC

1 25844U 89062H   26255.33606272  .00002111  00000-0  28306-2 0  9993
2 25844   7.6806 312.8438 6541657 316.7215   7.4797  3.17107416286594

Suivez ARIANE 44LP DEB en temps réel avec AllMySat

Download on the App Store